COSMOS 1275 DEB

Satellite information

Favourite Embed

Satellite Type and Status

DEBRISIN ORBIT

Key statistics

Satellite COSMOS 1275 DEB at a glance.

Uptime

16264

Days in orbit

Revolutions

≈ 14.0

Per day

Orbit

LEO

Low Earth Orbit

Inclination

82.9

Latest

Satellite identification and parameters

Extended collection of information and parameters for COSMOS 1275 DEB.

Object identification

Identified? True

Debris? True

Object name: COSMOS 1275 DEB

International designator: 1981-053AZ

Object number (NORAD): 12705

Object ID (CCSDS): 12705

Country: COMMONWEALTH OF INDEPENDENT STATES (CIS)

Current information (Y/N): Y

RCS size: MEDIUM

Orbital parameters

Period: 102.517 minutes

Inclination: 82.8885 deg

SMA: 7255.911 km

Apoapsis: 897.299 km

Periapsis: 858.254 km

RAAN: 11.273 deg

Eccentricy: 0.00269058

Argument of periapsis: 30.6991 deg

Mean anomaly: 123.8547 deg

Mean motion: 14.04639328 rev/day

Mean motion (dot): 0.00002005 rev/day2

B* drag term: 0.001240714 1/REarth

Two-line elements (TLE)

Creation date: Dec. 14, 2025, 3:07 a.m.

Reference frame: TEME

Reference center: EARTH

Epoch: Dec. 13, 2025, 1:25 p.m. UTC

TLE line 0: 0 COSMOS 1275 DEB

TLE line 1: 1 12705U 81053AZ 25347.55947390 .00002005 00000-0 12407-2 0 9998

TLE line 2: 2 12705 82.8885 11.2730 0026906 30.6991 123.8547 14.04639328247970

Live tracking on map

Real-time ground track for satellite COSMOS 1275 DEB.

In-orbit conjunctions

A list of the most updated potential collisions computed for object COSMOS 1275 DEB.

Target Orbit TCA Probability of collision Miss distance Type
CZ-6A DEB SSO 2025-10-17 06:29:56 0.0001303116 199.0 (m) DEBRIS
COSMOS 1275 DEB LEO 2025-08-24 17:00:52 0.0001045507 195.0 (m) DEBRIS

Associated space launch

Navigation satellite providing location information for the Tsiklon-B navigation system

COSMOS 1275 DEB was lifted into orbit during the mission ‘Kosmos-3M | Parus 27’, on board a Kosmos-3M space rocket.

The launch took place on June 4, 1981, 3:41 p.m. from 132/2.

For more information about the launch, click the button.

Launch to space Kosmos-3M | Parus 27
Kosmos-3M | Parus 27

Agency: N/A

Status: Launch Successful

Launch date: June 4, 1981, 3:41 p.m. UTC

Rocket: Kosmos-3M

Launch pad: 132/2

Location: Plesetsk Cosmodrome, Russian Federation

...

Latest news about this satellite

There are no fresh news available about this satellite. Check back as we update our databases every day.


Newsletter sign-up

Weekly statistics, charts and insights to help you stay on top of the space industry.